Regional Weather Roundup
Issued by NWS Midland/Odessa, TX

Skip options and go directly to product.
Home | Oldest Version | Previous Version | Current Version | All | Text Only | Save Text | Print | Product List | Glossary Off

Skip product version selection by date and time.   

166
ASUS44 KMAF 281410
RWRMAF
MIDLAND AREA WEATHER ROUNDUP
NATIONAL WEATHER SERVICE MIDLAND TX
900 AM CDT TUE APR 28 2015

...IN SOUTHWEST TEXAS AND SOUTHEAST NEW MEXICO...

CITY           SKY/WX    TMP DP  RH WIND       PRES   REMARKS
ALPINE         CLOUDY    43  34  70 N16G25    30.28R WCI  35
ANDREWS        CLOUDY    46  38  75 N16G24    30.22R WCI  39
ARTESIA        SUNNY     48  37  66 N14       30.29R
BIG SPRING     CLOUDY    49  43  81 N20G25    30.19R
CARLSBAD       MOSUNNY   50  35  56 N14       30.27R
DRYDEN           N/A     54  38  54 NW17G30   30.17R
FORT STOCKTON  CLOUDY    48  37  65 NW17      30.23R
GUAD PASS      SUNNY     44  30  57 NE26G43   30.25R WCI  35
HOBBS          CLOUDY    45  37  76 NW13G21   30.25R WCI  38
MARFA          PTSUNNY   43  34  70 N20       30.24R WCI  34
MIDLAND AIRPK  CLOUDY    48  42  79 N13G22    30.20R
MIDLAND INTL   CLOUDY    48  41  76 N20       30.19R
ODESSA         CLOUDY    46  41  82 N13G20    30.21R
PECOS          CLOUDY    50  37  59 N16       30.26R
PRESIDIO       FAIR      53  32  45 N13       30.24R
SEMINOLE       CLOUDY    46  38  73 N16       30.24R WCI  39
SNYDER         CLOUDY    46  44  94 N13       30.17R WCI  40
WINK           CLOUDY    51  36  56 N15G23    30.23R
$$
...OTHER STATIONS IN TEXAS...

CITY           SKY/WX    TMP DP  RH WIND       PRES   REMARKS
ABILENE        LGT RAIN  49  49 100 N14       30.11R
AMARILLO       MOSUNNY   45  37  73 N17       30.25R WCI  38
AUSTIN         PTSUNNY   61  51  70 NW14G26   29.95R
BROWNSVILLE    CLOUDY    69  62  78 NW16      29.90R
CORPUS CHRISTI PTSUNNY   67  54  63 NW21G29   29.93R
DALLAS FTW     LGT RAIN  52  50  93 N13       30.03R FOG
DEL RIO        SUNNY     60  40  47 NW20G31   30.10R
EL PASO        MOSUNNY   50  33  52 N9        30.27R
HOUSTON INT    CLOUDY    64  60  87 NE8       29.89R
LUBBOCK        PTSUNNY   46  42  86 N12       30.21R
SAN ANGELO     CLOUDY    52  45  77 N17       30.11R
SAN ANTONIO    MOSUNNY   60  47  61 NW16      29.99R
WACO           LGT RAIN  52  51  97 N14       29.99R
WICHITA FALLS  NOT AVBL
$$
...OTHER LOCATIONS IN NEW MEXICO...

CITY           SKY/WX    TMP DP  RH WIND       PRES   REMARKS
ALAMAGORDO     MOSUNNY   48  32  53 SW8       30.26S
ALBUQUERQUE    MOSUNNY   47  35  63 SE5       30.33R
CANNON AFB     MOSUNNY   45  36  70 N17       30.27R WCI  38
CLOVIS         SUNNY     45  34  65 N18       30.26R WCI  37
HOLLOMAN AFB   MOSUNNY   50  31  48 NW7       30.26R
ROSWELL        SUNNY     51  38  60 NW10      30.28R
RUIDOSO        SUNNY     37  27  65 E3        30.36R
SANTA FE       SUNNY     40  30  67 N5        30.33R WCI  37
TRUTH OR CONSE PTSUNNY   46  34  62 N3        30.31R
TUCUMCARI      SUNNY     48  36  63 N10       30.28R
$$

USA.gov is the U.S. government's official web portal to all federal, state and local government web resources and services.